This is the latest recevied weather packets stored in our database for station/object KE0PRS. If no packets are shown the sender has not sent any weather packets the latest 10 day(s).
| Time | Temp. | Humidity | Pressure | Rain* | Wind** | Luminosity | Snow |
|---|---|---|---|---|---|---|---|
| 1788011503 | 23.89° C | 53% | 1016 hPa | 0 mm | - | 171 W/m² | - |
| 1788011199 | 23.33° C | 53% | 1016.2 hPa | 0 mm | - | 125 W/m² | - |
| 1788010893 | 23.33° C | 53% | 1016.4 hPa | 0 mm | - | 142 W/m² | - |
| 1788010592 | 22.78° C | 54% | 1016.1 hPa | 0 mm | - | 131 W/m² | - |
| 1788010286 | 22.78° C | 55% | 1016.1 hPa | 0 mm | - | 111 W/m² | - |
| 1788009981 | 22.78° C | 55% | 1016.4 hPa | 0 mm | - | 44 W/m² | - |
| 1788009680 | 22.78° C | 54% | 1016.3 hPa | 0 mm | - | 35 W/m² | - |
| 1788009379 | 22.78° C | 54% | 1016.4 hPa | 0 mm | - | 31 W/m² | - |
| 1788009079 | 22.78° C | 54% | 1016.4 hPa | 0 mm | - | 28 W/m² | - |
| 1788008775 | 22.78° C | 54% | 1016.2 hPa | 0 mm | - | 25 W/m² | - |
| 1788008474 | 22.78° C | 54% | 1016.3 hPa | 0 mm | - | 23 W/m² | - |
| 1788008171 | 22.78° C | 53% | 1016.3 hPa | 0 mm | - | 20 W/m² | - |
| 1788007869 | 22.78° C | 53% | 1016.1 hPa | 0 mm | - | 19 W/m² | - |
| 1788007569 | 22.78° C | 52% | 1016.2 hPa | 0 mm | - | 18 W/m² | - |
| 1788007269 | 22.78° C | 51% | 1016.1 hPa | 0 mm | - | 16 W/m² | - |
| 1788006969 | 22.78° C | 51% | 1016 hPa | 0 mm | - | 15 W/m² | - |
| 1788006669 | 22.78° C | 51% | 1016.3 hPa | 0 mm | - | 13 W/m² | - |
| 1788006364 | 22.78° C | 51% | 1016.3 hPa | 0 mm | - | 10 W/m² | - |
| 1788006063 | 22.78° C | 51% | 1016.2 hPa | 0 mm | - | 8 W/m² | - |
| 1788005762 | 22.78° C | 50% | 1016.2 hPa | 0 mm | - | 5 W/m² | - |
| 1788005457 | 22.78° C | 50% | 1016.4 hPa | 0 mm | - | 3 W/m² | - |
| 1788005156 | 22.78° C | 50% | 1016.3 hPa | 0 mm | - | 2 W/m² | - |
| 1788004851 | 22.78° C | 50% | 1016.3 hPa | 0 mm | - | 1 W/m² | - |
| 1788004550 | 22.78° C | 50% | 1016.2 hPa | 0 mm | - | 0 W/m² | - |
| 1788004245 | 22.78° C | 51% | 1016.2 hPa | 0 mm | - | 0 W/m² | - |
* Rain latest hour (hover to see other rain measurements)
** Current wind speed in m/s (hover to see current wind gust speed)